Content
SEND FEEDBACK

Daily
Averages
Monthly
Summary
Canada

VICTORIA, BRITISH COLUMBIA


Home > North America > Canada > British Columbia
Elevation: 62 feet     Latitude: 48 39N     Longitude: 123 26W

WEATHER
 
SELECT A DAY
Number of Records: 198,522;   Date Range: 1/1/95 - 10/23/14
 
SHARE

PRINT THIS DATA

[ ← Previous Day ]
WEATHER ALMANAC - FEBRUARY 3, 2013
[ Next Day → ]
[ °C ]   °F
Weather ElementAverageHighLow
Temperature43.1 °F44.6 °F (11:21 am)41 °F (1:00 am)
Dewpoint34.7 °F41 °F (10:00 am) (7:00 pm)
Humidity88.5 %93 % (1:00 am)78 % (10:00 pm)
Barometer26.35 in30.29 in (10:00 am) (7:00 pm)
Wind Speed5.1 mph13.8 mph (5:00 pm)
Weather ElementAverage
Visibility16.3 mi
Wind DirectionSSE (158.4 °)

Weather ElementTotal
Precipitation---
Heating Degree Days22.2 (Base 65)
Averaged from 31 records on February 3, 2013
WEATHER CONDITIONS BREAKOUT
WIND DIRECTION BREAKOUT
WEATHER BY HOUR - FEBRUARY 3, 2013
[ °C ]   °F
Local TimeTemperatureDewpointHumidityBarometerVisibilityWind DirectionWind SpeedGust SpeedPrecipitationEventsConditions
1:00 AM41.0 °F39.2 °F93 %30.26 in20.0 miSSW (210°)3.5 mphOvercast
2:00 AM41.0 °F39.2 °F93 %30.28 in20.0 miNNW (340°)2.3 mphOvercast
3:00 AM41.0 °F39.2 °F93 %30.27 in20.0 miCalmOvercast
4:00 AM41.0 °F39.0 °F88 %30.27 in19.0 miWest (270°)2.3 mphOvercast
4:00 AM41.0 °F39.2 °F93 %30.27 in20.0 miWNW (290°)2.3 mphOvercast
5:00 AM41.0 °F39.2 °F93 %30.27 in12.0 miWNW (300°)3.5 mphOvercast
6:00 AM41.0 °F37.4 °F87 %30.27 in12.0 miCalmOvercast
7:00 AM41.0 °F37.4 °F87 %30.26 in12.0 miCalmOvercast
8:00 AM41.0 °F39.2 °F93 %30.27 in12.0 miCalmOvercast
9:00 AM42.8 °F39.2 °F87 %30.28 in12.0 miSSE (150°)4.6 mphOvercast
10:00 AM43.0 °F40.0 °F85 %30.29 in12.0 miSSE (160°)4.6 mphOvercast
10:00 AM42.8 °F41.0 °F93 %30.29 in12.0 miSSE (160°)4.6 mphOvercast
11:00 AM42.8 °F41.0 °F93 %30.29 in12.0 miSSW (200°)2.3 mphOvercast
11:21 AM44.6 °F0.0 °F12.0 miSE (130°)5.8 mphRainLight Rain
12:00 PM42.8 °F41.0 °F93 %30.28 in12.0 miSE (140°)6.9 mphOvercast
1:00 PM44.6 °F41.0 °F87 %30.25 in15.0 miESE (120°)9.2 mphOvercast
1:28 PM44.6 °F0.0 °F15.0 miSE (140°)8.1 mphOvercast
2:00 PM44.6 °F41.0 °F87 %30.25 in20.0 miSE (140°)8.1 mphOvercast
2:12 PM44.6 °F0.0 °F15.0 miSE (130°)6.9 mphRainLight Rain
3:00 PM44.6 °F41.0 °F87 %30.24 in12.0 miESE (120°)5.8 mphRainLight Rain
4:00 PM44.0 °F41.0 °F84 %30.23 in15.0 miSouth (170°)6.9 mphRainLight Rain
4:00 PM44.6 °F41.0 °F87 %30.23 in15.0 miSouth (170°)6.9 mphRainLight Rain
5:00 PM44.6 °F41.0 °F87 %30.22 in15.0 miSouth (180°)13.8 mphRainLight Rain
6:00 PM44.6 °F41.0 °F87 %30.22 in15.0 miSouth (170°)9.2 mphRainLight Rain
7:00 PM44.6 °F41.0 °F87 %30.22 in15.0 miSSE (160°)6.9 mphRainLight Rain
8:00 PM44.6 °F41.0 °F87 %30.21 in15.0 miSSE (160°)6.9 mphRainLight Rain
8:29 PM44.6 °F0.0 °F30.0 miSE (140°)5.8 mphOvercast
9:00 PM42.8 °F39.2 °F87 %30.20 in30.0 miSouth (190°)3.5 mphMostly Cloudy
10:00 PM44.0 °F39.0 °F78 %30.20 in15.0 miSSW (200°)5.8 mphPartly Cloudy
10:00 PM42.8 °F39.2 °F87 %30.20 in15.0 miSSW (210°)5.8 mphMostly Cloudy
11:00 PM42.8 °F39.2 °F87 %30.19 in30.0 miSSE (160°)6.9 mphMostly Cloudy
Hourly data recorded from CYYJ, located miles away from Victoria, British Columbia







STORIES FROM OUR PARTNERS